STARLINK-5141, 55500

Orbit data source: Space-Track

STARLINK-5141, 55500 is a payload satellite owned by SpaceX/Seattle (US) in LEO that was launched on Thu, 02 Feb 2023 UTC via an FALCON 9 launch vehicle from the Air Force Eastern Test Range (AFETR). Payload-class satellites include a variety of spacecraft equipped with specific instruments for various scientific and technological missions. These include communications satellites like Starlink; space stations such as the ISS; scientific satellites like the Hubble; Earth observation satellites from companies like Planet Labs, Umbra, and HawkEye 360; GPS; miniature CubeSats for education and research; and military/defense satellites.

Loading next visibility...
Identifier
55500, 2023-015BD
Orbit
LEO
Country
Flag of USUS
Related business
Manufacturer
SpaceX/Seattle
Mission
Operational Commercial Communications
Bus & Motor
STARLINK, Unknown motor
Mass
305 kg wet, ~290 kg dry
Launch date (UTC)
2023-02-02 (3 years ago)
Launch vehicle
FALCON 9
Launch site
Air Force Eastern Test Range (AFETR)
Object type
Payload
Rocket body
Debris
Shape & HBR
Box + 1 Pan, 10.1 m
Radar Cross Section
13.562 m², Large (>1 m²)

Expand to show TLE details & history
Last TLE update: 6 hours ago

TLE from 6 hours ago
0 STARLINK-5141
1 55500U 23015BD  26132.90368176  .00000893  00000-0  42009-4 0  9999
2 55500  43.0053 337.2737 0001838 268.2745  91.7897 15.27556999180411
Epoch: 2026-05-12T21:41Z
TLE epoch observation values (Epoch: 2026-05-12T21:41:18.104Z)
Latitude
0.00005°
Longitude
141.27695°
Altitude
482.934 km
Speed
7.626 km/s
True Right ascension
22h 29m 05s
True Declination
0° 00' 00"
Sunlit
Object was in daylight at epoch
Visualization orbit readout
Latitude
Unknown
Longitude
Unknown
Altitude
Unknown
Speed
Unknown
Apparent Right ascension
Unknown
Apparent Declination
Unknown
Sunlit
N/A
Visualization observer readout
Local Sidereal Time
12:10:32
Azimuth
Unknown
Elevation
Unknown
Doppler factor
Unknown
Orbital elements
Apogee altitude
486.324 km
Perigee altitude
483.801 km
Semi-major axis
6,863.199 km
Eccentricity
0.00018
Inclination
43.0053°
RAAN
337.2737°
Arg. of periapsis
268.2745°
True anomaly
91.81075°
Mean anomaly
91.7897°
Eccentric anomaly
91.80023°
Mean motion
3.81727 °/min
Orbital period
94.31 mins
BSTAR
0.000042009
Loading maneuver chart data...
Computing Atmospheric mass density...

Documentation

Showing up to 5 results
|